一网星座-0237星 (ONEWEB-0237 )

导读 | 星芒AI

ONEWEB-0237 是 OneWeb 卫星星座计划中的一颗低轨通信卫星,旨在为全球提供高速互联网服务。该卫星采用模块化设计,搭载先进通信载荷,支持高带宽数据传输。作为 OneWeb 扩展其全球覆盖网络的一部分,ONEWEB-0237 与其他卫星协同工作,为偏远和 underserved 地区提供稳定、低延迟的网络连接。该卫星由 OneWeb 与合作伙伴联合研发,于近期成功发射并投入运行,进一步推动其构建全球卫星互联网的目标。

基本信息
目录编号:
48770
目录名称:
ONEWEB-0237
国际标识:
2021-045D
轨道中心:
EARTH
卫星名称:
一网星座-0237星
卫星全名:
一网星座-0237星 (ONEWEB-0237 )
卫星状态:
在轨 (已飞行1662 天)
发射日期:
2021-05-28 UTC
国别 :
英国 (GB)
星等 :
--
轨道信息
数据来源 国际轨道数据
星历时间: 2025-12-15T04:48:07+0800
22小时前
查看轨道信息
半长轴: 7579.906km
偏心率: 0.0002062
轨道倾角: 87.900°
近地点辐角 73.504°
升交点赤经 295.992°
平近点角 286.631°
近地点: 1200.208km
远地点: 1203.334km
周期: 109.460分钟
每日圈数: 13.155491
详细信息
平衡模式:
三轴稳定
覆盖范围:
全球
运营商:
一网卫星公司
运营商所在国:
英国
制造商(研发单位):
一网卫星公司
制造商所在国:
英国
使用方式:
暂无
卫星简介
OneWeb卫星网络由648颗重约125公斤的微型卫星组成,运行在1200公里的轨道上。 每颗卫星都能够提供至少每秒8千兆位的吞吐量,以使用其高吞吐量的Ku频段有效载荷为家庭和移动平台提供互联网接入。该卫星仍在工作。
2D轨道图
3D轨道图
轨道高度分析图
轨道倾角分析图
轨道综合分析图
查看轨道综合分析图